This is the latest recevied weather packets stored in our database for station/object NN3A-3. If no packets are shown the sender has not sent any weather packets the latest 10 day(s).
| Time | Temp. | Humidity | Pressure | Rain* | Wind** | Luminosity | Snow |
|---|---|---|---|---|---|---|---|
| 1778157113 | 13.89° C | 74% | 1010.6 hPa | 0 mm | - | - | - |
| 1778156512 | 12.22° C | 76% | 1010.6 hPa | 0 mm | - | - | - |
| 1778156213 | 12.78° C | 77% | 1010.6 hPa | 0 mm | - | - | - |
| 1778155913 | 11.11° C | 79% | 1010.6 hPa | 0 mm | - | - | - |
| 1778155313 | 11.11° C | 82% | 1010.6 hPa | 0 mm | - | - | - |
| 1778155013 | 10.56° C | 82% | 1010.6 hPa | 0 mm | - | - | - |
| 1778154713 | 8.89° C | 82% | 1011 hPa | 0 mm | - | - | - |
| 1778154114 | 10.56° C | 82% | 1010.6 hPa | 0 mm | - | - | - |
| 1778153814 | 10.56° C | 82% | 1010.6 hPa | 0 mm | - | - | - |
| 1778153514 | 11.11° C | 84% | 1010.3 hPa | 0 mm | - | - | - |
| 1778152914 | 10° C | 88% | 1010.3 hPa | 0 mm | - | - | - |
| 1778152614 | 8.89° C | 89% | 1010.3 hPa | 0 mm | - | - | - |
| 1778152315 | 7.78° C | 91% | 1010.3 hPa | 0 mm | - | - | - |
| 1778151715 | 7.22° C | 92% | 1010.3 hPa | 0 mm | - | - | - |
| 1778151115 | 6.67° C | 93% | 1010 hPa | 0 mm | - | - | - |
| 1778150815 | 5.56° C | 93% | 1010 hPa | 0 mm | - | - | - |
| 1778150515 | 6.11° C | 93% | 1010 hPa | 0 mm | - | - | - |
| 1778149916 | 5° C | 92% | 1010 hPa | 0 mm | - | - | - |
| 1778149616 | 5.56° C | 92% | 1010 hPa | 0 mm | - | - | - |
| 1778149316 | 6.67° C | 92% | 1009.6 hPa | 0 mm | - | - | - |
| 1778148717 | 6.11° C | 92% | 1010 hPa | 0 mm | - | - | - |
| 1778148117 | 5.56° C | 91% | 1009.6 hPa | 0 mm | - | - | - |
| 1778147817 | 7.22° C | 91% | 1010 hPa | 0 mm | - | - | - |
| 1778147517 | 5.56° C | 92% | 1010 hPa | 0 mm | - | - | - |
| 1778147217 | 7.22° C | 92% | 1010 hPa | 0 mm | - | - | - |
* Rain latest hour (hover to see other rain measurements)
** Current wind speed in m/s (hover to see current wind gust speed)